BEIJING 1 1 28890U 05043A 26237.33865793 -.00000057 00000+0 -15579-5 0 9998 2 28890 98.3000 10.9716 0015841 67.3227 292.9647 14.63566768110765 HUANJING 1A (HJ-1A) 1 33320U 08041A 26237.27596007 .00000841 00000+0 10669-3 0 9997 2 33320 97.6748 220.4718 0017290 272.9343 86.9893 14.84128075968654 HUANJING 1B (HJ-1B) 1 33321U 08041B 26237.27694144 .00001183 00000+0 14887-3 0 9995 2 33321 97.6582 223.4324 0035320 319.0257 40.8304 14.83434725968655 YAOGAN-4 1 33446U 08061A 26237.04393055 .00000719 00000+0 94252-4 0 9996 2 33446 97.9309 170.0522 0013539 200.9523 159.1138 14.83312327955874 DEIMOS-1 1 35681U 09041A 26237.30058650 .00000294 00000+0 50423-4 0 9996 2 35681 97.7487 31.5696 0001468 35.4495 324.6812 14.75297072917070 UK-DMC 2 1 35683U 09041C 26237.30147205 .00000221 00000+0 39229-4 0 9994 2 35683 97.8921 10.6162 0001695 74.7312 285.4086 14.76117111916766 DMC3-FM1 1 40715U 15032A 26237.23557006 .00000397 00000+0 51498-4 0 9995 2 40715 97.6368 99.6725 0005411 169.9788 190.1537 14.85800307600160 DMC3-FM2 1 40716U 15032B 26237.25730536 .00000962 00000+0 11651-3 0 9993 2 40716 97.6421 101.3136 0005738 176.0198 184.1064 14.85811222600160 DMC3-FM3 1 40717U 15032C 26237.28114543 .00000011 00000+0 71515-5 0 9993 2 40717 97.6470 103.1326 0004923 173.5589 186.5691 14.85796953600173